Time,TemperatureF,DewpointF,PressureIn,WindDirection,WindDirectionDegrees,WindSpeedMPH,WindSpeedGustMPH,Humidity,HourlyPrecipIn,Conditions,Clouds,dailyrainin,SolarRadiationWatts/m^2,SoftwareType,DateUTC
2013-07-03 00:02:00,65.0,52.0,30.09,NE,53,4.0,12.0,63,0.00,,,0.00,0.000000,,2013-07-03 07:02:00,
2013-07-03 00:12:00,64.0,52.0,30.09,NE,44,2.0,9.0,64,0.00,,,0.00,0.000000,,2013-07-03 07:12:00,
2013-07-03 00:22:00,64.0,52.0,30.09,ENE,59,2.0,6.0,64,0.00,,,0.00,0.000000,,2013-07-03 07:22:00,
2013-07-03 00:34:00,64.0,52.0,30.09,NE,47,1.0,7.0,65,0.00,,,0.00,0.000000,,2013-07-03 07:34:00,
2013-07-03 00:43:00,64.0,52.0,30.10,ENE,71,1.0,5.0,65,0.00,,,0.00,0.000000,,2013-07-03 07:43:00,
2013-07-03 00:53:00,63.0,51.0,30.10,NE,45,3.0,7.0,64,0.00,,,0.00,0.000000,,2013-07-03 07:53:00,
2013-07-03 01:12:00,63.0,51.0,30.11,East,81,3.0,6.0,64,0.00,,,0.00,0.000000,,2013-07-03 08:12:00,
2013-07-03 01:23:00,63.0,51.0,30.10,ENE,60,2.0,9.0,64,0.00,,,0.00,0.000000,,2013-07-03 08:23:00,
2013-07-03 01:34:00,63.0,51.0,30.11,SE,126,2.0,6.0,64,0.00,,,0.00,0.000000,,2013-07-03 08:34:00,
2013-07-03 01:52:00,63.0,50.0,30.11,ESE,119,3.0,6.0,63,0.00,,,0.00,0.000000,,2013-07-03 08:52:00,
2013-07-03 02:12:00,63.0,50.0,30.11,ENE,61,3.0,6.0,63,0.00,,,0.00,0.000000,,2013-07-03 09:12:00,
2013-07-03 02:33:00,63.0,50.0,30.11,NE,41,1.0,5.0,62,0.00,,,0.00,0.000000,,2013-07-03 09:33:00,
2013-07-03 02:43:00,62.0,47.0,30.11,ENE,58,1.0,7.0,58,0.00,,,0.00,0.000000,,2013-07-03 09:43:00,
2013-07-03 02:53:00,62.0,47.0,30.11,East,87,3.0,7.0,57,0.00,,,0.00,0.000000,,2013-07-03 09:53:00,
2013-07-03 03:01:00,62.0,46.0,30.11,East,82,1.0,8.0,56,0.00,,,0.00,0.000000,,2013-07-03 10:01:00,
2013-07-03 03:11:00,62.0,46.0,30.11,ENE,62,3.0,7.0,56,0.00,,,0.00,0.000000,,2013-07-03 10:11:00,
2013-07-03 03:22:00,61.0,45.0,30.12,ESE,106,2.0,7.0,56,0.00,,,0.00,0.000000,,2013-07-03 10:22:00,
2013-07-03 03:34:00,61.0,45.0,30.12,ENE,60,3.0,10.0,56,0.00,,,0.00,0.000000,,2013-07-03 10:34:00,
2013-07-03 03:43:00,61.0,45.0,30.12,East,85,3.0,6.0,55,0.00,,,0.00,0.000000,,2013-07-03 10:43:00,
2013-07-03 03:52:00,61.0,44.0,30.12,ENE,57,2.0,8.0,54,0.00,,,0.00,0.000000,,2013-07-03 10:52:00,
2013-07-03 04:02:00,61.0,44.0,30.13,ENE,77,2.0,8.0,54,0.00,,,0.00,0.000000,,2013-07-03 11:02:00,
2013-07-03 04:11:00,61.0,45.0,30.12,ENE,78,1.0,8.0,55,0.00,,,0.00,0.000000,,2013-07-03 11:11:00,
2013-07-03 04:22:00,61.0,45.0,30.13,NE,48,1.0,4.0,55,0.00,,,0.00,0.000000,,2013-07-03 11:22:00,
2013-07-03 04:34:00,61.0,45.0,30.13,NE,42,2.0,10.0,56,0.00,,,0.00,0.000000,,2013-07-03 11:34:00,
2013-07-03 04:42:00,61.0,45.0,30.13,NE,40,2.0,6.0,55,0.00,,,0.00,0.000000,,2013-07-03 11:42:00,
2013-07-03 04:52:00,61.0,45.0,30.13,ENE,63,1.0,7.0,56,0.00,,,0.00,0.000000,,2013-07-03 11:52:00,
2013-07-03 05:02:00,61.0,46.0,30.13,NE,53,3.0,6.0,58,0.00,,,0.00,0.000000,,2013-07-03 12:02:00,
2013-07-03 05:11:00,61.0,46.0,30.13,NNE,32,1.0,6.0,58,0.00,,,0.00,0.000000,,2013-07-03 12:11:00,
2013-07-03 05:34:00,60.0,46.0,30.14,SE,141,2.0,6.0,59,0.00,,,0.00,0.000000,,2013-07-03 12:34:00,
2013-07-03 05:43:00,60.0,46.0,30.14,ENE,73,1.0,9.0,60,0.00,,,0.00,7.000000,,2013-07-03 12:43:00,
2013-07-03 05:53:00,60.0,46.0,30.14,NE,53,1.0,6.0,60,0.00,,,0.00,11.000000,,2013-07-03 12:53:00,
2013-07-03 06:02:00,60.0,47.0,30.14,East,89,1.0,4.0,61,0.00,,,0.00,14.000000,,2013-07-03 13:02:00,
2013-07-03 06:12:00,60.0,47.0,30.14,ENE,76,1.0,4.0,61,0.00,,,0.00,18.000000,,2013-07-03 13:12:00,
2013-07-03 06:33:00,60.0,47.0,30.14,ESE,107,1.0,4.0,62,0.00,,,0.00,39.000000,,2013-07-03 13:33:00,
2013-07-03 06:44:00,60.0,47.0,30.14,East,97,0.0,4.0,62,0.00,,,0.00,46.000000,,2013-07-03 13:44:00,
2013-07-03 06:53:00,61.0,48.0,30.14,NE,48,2.0,5.0,63,0.00,,,0.00,69.000000,,2013-07-03 13:53:00,
2013-07-03 07:02:00,61.0,48.0,30.14,East,90,1.0,6.0,63,0.00,,,0.00,83.000000,,2013-07-03 14:02:00,
2013-07-03 07:53:00,62.0,49.0,30.15,ENE,70,3.0,5.0,62,0.00,,,0.00,227.000000,,2013-07-03 14:53:00,
2013-07-03 08:01:00,62.0,49.0,30.15,SE,138,1.0,7.0,62,0.00,,,0.00,148.000000,,2013-07-03 15:01:00,
2013-07-03 08:12:00,62.0,48.0,30.15,ENE,59,1.0,7.0,61,0.00,,,0.00,431.000000,,2013-07-03 15:12:00,
2013-07-03 08:53:00,65.0,49.0,30.15,ENE,58,2.0,6.0,57,0.00,,,0.00,475.000000,,2013-07-03 15:53:00,
2013-07-03 09:33:00,68.0,50.0,30.14,ENE,71,3.0,4.0,52,0.00,,,0.00,598.000000,,2013-07-03 16:33:00,
2013-07-03 09:43:00,68.0,50.0,30.14,NE,51,1.0,5.0,53,0.00,,,0.00,626.000000,,2013-07-03 16:43:00,
2013-07-03 09:53:00,68.0,50.0,30.14,NW,317,3.0,5.0,53,0.00,,,0.00,636.000000,,2013-07-03 16:53:00,
2013-07-03 10:02:00,70.0,51.0,30.14,NW,317,2.0,5.0,51,0.00,,,0.00,673.000000,,2013-07-03 17:02:00,
2013-07-03 10:12:00,70.0,51.0,30.14,NNW,328,0.0,6.0,51,0.00,,,0.00,700.000000,,2013-07-03 17:12:00,
2013-07-03 10:21:00,71.0,52.0,30.14,NNW,336,3.0,6.0,51,0.00,,,0.00,712.000000,,2013-07-03 17:21:00,
2013-07-03 10:34:00,71.0,51.0,30.14,WNW,301,1.0,5.0,49,0.00,,,0.00,745.000000,,2013-07-03 17:34:00,
2013-07-03 10:44:00,72.0,51.0,30.14,NW,304,3.0,7.0,48,0.00,,,0.00,761.000000,,2013-07-03 17:44:00,
2013-07-03 10:52:00,72.0,50.0,30.14,NNW,327,4.0,7.0,46,0.00,,,0.00,784.000000,,2013-07-03 17:52:00,
2013-07-03 11:12:00,72.0,51.0,30.14,WSW,238,0.0,6.0,47,0.00,,,0.00,812.000000,,2013-07-03 18:12:00,
2013-07-03 11:33:00,74.0,52.0,30.13,NW,315,3.0,5.0,47,0.00,,,0.00,847.000000,,2013-07-03 18:33:00,
2013-07-03 11:43:00,74.0,52.0,30.13,NNW,342,1.0,4.0,47,0.00,,,0.00,860.000000,,2013-07-03 18:43:00,
2013-07-03 11:53:00,74.0,52.0,30.14,North,355,1.0,4.0,47,0.00,,,0.00,868.000000,,2013-07-03 18:53:00,
2013-07-03 12:12:00,75.0,53.0,30.13,NNW,346,1.0,3.0,46,0.00,,,0.00,893.000000,,2013-07-03 19:12:00,
2013-07-03 12:24:00,75.0,53.0,30.13,South,169,2.0,5.0,47,0.00,,,0.00,905.000000,,2013-07-03 19:24:00,
2013-07-03 12:44:00,76.0,54.0,30.13,NNE,16,1.0,7.0,46,0.00,,,0.00,914.000000,,2013-07-03 19:44:00,
2013-07-03 12:53:00,76.0,54.0,30.13,NW,321,3.0,5.0,47,0.00,,,0.00,918.000000,,2013-07-03 19:53:00,
2013-07-03 13:01:00,76.0,54.0,30.13,North,349,3.0,5.0,47,0.00,,,0.00,923.000000,,2013-07-03 20:01:00,
2013-07-03 13:34:00,77.0,56.0,30.12,NW,313,5.0,7.0,49,0.00,,,0.00,923.000000,,2013-07-03 20:34:00,
2013-07-03 13:43:00,78.0,56.0,30.12,North,350,5.0,12.0,47,0.00,,,0.00,923.000000,,2013-07-03 20:43:00,
2013-07-03 13:53:00,77.0,56.0,30.12,NW,321,4.0,12.0,48,0.00,,,0.00,921.000000,,2013-07-03 20:53:00,
2013-07-03 14:02:00,78.0,57.0,30.12,NW,312,5.0,11.0,48,0.00,,,0.00,916.000000,,2013-07-03 21:02:00,
2013-07-03 14:11:00,78.0,57.0,30.12,NW,324,5.0,10.0,49,0.00,,,0.00,907.000000,,2013-07-03 21:11:00,
2013-07-03 14:33:00,78.0,57.0,30.11,NW,309,4.0,12.0,49,0.00,,,0.00,893.000000,,2013-07-03 21:33:00,
2013-07-03 14:42:00,79.0,58.0,30.11,North,360,4.0,13.0,48,0.00,,,0.00,884.000000,,2013-07-03 21:42:00,
2013-07-03 14:52:00,79.0,57.0,30.11,WNW,302,6.0,12.0,47,0.00,,,0.00,870.000000,,2013-07-03 21:52:00,
2013-07-03 15:01:00,79.0,56.0,30.11,North,5,1.0,10.0,46,0.00,,,0.00,863.000000,,2013-07-03 22:01:00,
2013-07-03 15:11:00,79.0,56.0,30.10,WNW,302,5.0,10.0,46,0.00,,,0.00,849.000000,,2013-07-03 22:11:00,
2013-07-03 15:22:00,79.0,56.0,30.10,NW,304,2.0,11.0,46,0.00,,,0.00,835.000000,,2013-07-03 22:22:00,
2013-07-03 15:33:00,80.0,57.0,30.09,West,267,4.0,11.0,46,0.00,,,0.00,817.000000,,2013-07-03 22:33:00,
2013-07-03 15:43:00,80.0,57.0,30.09,NW,320,7.0,13.0,45,0.00,,,0.00,800.000000,,2013-07-03 22:43:00,
2013-07-03 15:53:00,79.0,56.0,30.09,North,360,4.0,12.0,45,0.00,,,0.00,793.000000,,2013-07-03 22:53:00,
2013-07-03 16:02:00,80.0,57.0,30.09,NW,304,0.0,11.0,45,0.00,,,0.00,763.000000,,2013-07-03 23:02:00,
2013-07-03 16:11:00,81.0,57.0,30.09,North,5,3.0,7.0,44,0.00,,,0.00,751.000000,,2013-07-03 23:11:00,
2013-07-03 16:52:00,80.0,56.0,30.06,WNW,283,3.0,12.0,44,0.00,,,0.00,649.000000,,2013-07-03 23:52:00,
2013-07-03 17:02:00,80.0,57.0,30.06,WNW,300,3.0,13.0,45,0.00,,,0.00,626.000000,,2013-07-04 00:02:00,
2013-07-03 17:11:00,80.0,56.0,30.07,NNW,332,4.0,10.0,44,0.00,,,0.00,613.000000,,2013-07-04 00:11:00,
2013-07-03 17:43:00,79.0,56.0,30.06,NW,309,4.0,9.0,45,0.00,,,0.00,520.000000,,2013-07-04 00:43:00,
2013-07-03 18:11:00,78.0,55.0,30.05,West,278,3.0,13.0,45,0.00,,,0.00,452.000000,,2013-07-04 01:11:00,
2013-07-03 18:22:00,78.0,55.0,30.05,WNW,300,6.0,9.0,45,0.00,,,0.00,425.000000,,2013-07-04 01:22:00,
2013-07-03 18:33:00,78.0,55.0,30.05,NNW,344,4.0,10.0,45,0.00,,,0.00,381.000000,,2013-07-04 01:33:00,
2013-07-03 18:43:00,77.0,55.0,30.05,NNW,348,4.0,8.0,46,0.00,,,0.00,353.000000,,2013-07-04 01:43:00,
2013-07-03 18:52:00,77.0,55.0,30.05,WNW,298,4.0,7.0,46,0.00,,,0.00,325.000000,,2013-07-04 01:52:00,
2013-07-03 19:01:00,77.0,55.0,30.05,NW,310,3.0,7.0,46,0.00,,,0.00,297.000000,,2013-07-04 02:01:00,
2013-07-03 19:11:00,77.0,54.0,30.05,NNW,337,6.0,10.0,45,0.00,,,0.00,281.000000,,2013-07-04 02:11:00,
2013-07-03 19:22:00,77.0,55.0,30.05,WNW,301,3.0,7.0,46,0.00,,,0.00,251.000000,,2013-07-04 02:22:00,
2013-07-03 19:34:00,76.0,54.0,30.04,WNW,300,2.0,9.0,47,0.00,,,0.00,202.000000,,2013-07-04 02:34:00,
2013-07-03 19:43:00,76.0,54.0,30.05,NW,319,0.0,6.0,47,0.00,,,0.00,171.000000,,2013-07-04 02:43:00,
2013-07-03 19:52:00,76.0,55.0,30.05,NNW,337,3.0,6.0,48,0.00,,,0.00,137.000000,,2013-07-04 02:52:00,
2013-07-03 20:01:00,76.0,55.0,30.05,NW,315,1.0,5.0,48,0.00,,,0.00,107.000000,,2013-07-04 03:01:00,
2013-07-03 20:11:00,75.0,52.0,30.05,NNE,19,1.0,6.0,45,0.00,,,0.00,93.000000,,2013-07-04 03:11:00,
2013-07-03 20:23:00,75.0,50.0,30.05,North,355,1.0,7.0,42,0.00,,,0.00,70.000000,,2013-07-04 03:23:00,
2013-07-03 20:53:00,72.0,46.0,30.05,ENE,63,2.0,5.0,40,0.00,,,0.00,16.000000,,2013-07-04 03:53:00,
2013-07-03 21:01:00,71.0,47.0,30.05,NE,41,0.0,4.0,43,0.00,,,0.00,12.000000,,2013-07-04 04:01:00,
2013-07-03 21:11:00,70.0,48.0,30.05,East,92,1.0,4.0,45,0.00,,,0.00,9.000000,,2013-07-04 04:11:00,
2013-07-03 21:22:00,69.0,48.0,30.06,NE,55,1.0,6.0,48,0.00,,,0.00,5.000000,,2013-07-04 04:22:00,
2013-07-03 21:33:00,69.0,49.0,30.06,NE,51,1.0,5.0,49,0.00,,,0.00,0.000000,,2013-07-04 04:33:00,
2013-07-03 21:43:00,68.0,49.0,30.06,ENE,58,0.0,4.0,51,0.00,,,0.00,0.000000,,2013-07-04 04:43:00,
2013-07-03 21:52:00,68.0,50.0,30.06,ENE,65,0.0,2.0,52,0.00,,,0.00,0.000000,,2013-07-04 04:52:00,
2013-07-03 22:01:00,67.0,49.0,30.06,ENE,62,0.0,3.0,53,0.00,,,0.00,0.000000,,2013-07-04 05:01:00,
2013-07-03 22:12:00,67.0,51.0,30.07,ESE,118,2.0,4.0,56,0.00,,,0.00,0.000000,,2013-07-04 05:12:00,
2013-07-03 22:21:00,67.0,52.0,30.07,ENE,62,2.0,5.0,58,0.00,,,0.00,0.000000,,2013-07-04 05:21:00,
2013-07-03 22:32:00,66.0,52.0,30.07,East,88,1.0,5.0,60,0.00,,,0.00,0.000000,,2013-07-04 05:32:00,
2013-07-03 22:42:00,66.0,52.0,30.07,East,84,1.0,4.0,61,0.00,,,0.00,0.000000,,2013-07-04 05:42:00,
2013-07-03 22:52:00,65.0,52.0,30.07,NE,53,1.0,4.0,62,0.00,,,0.00,0.000000,,2013-07-04 05:52:00,
2013-07-03 23:01:00,65.0,52.0,30.07,NE,52,3.0,6.0,63,0.00,,,0.00,0.000000,,2013-07-04 06:01:00,
2013-07-03 23:11:00,64.0,52.0,30.07,East,80,1.0,6.0,64,0.00,,,0.00,0.000000,,2013-07-04 06:11:00,
2013-07-03 23:22:00,63.0,51.0,30.08,ENE,62,4.0,10.0,66,0.00,,,0.00,0.000000,,2013-07-04 06:22:00,
2013-07-03 23:33:00,63.0,51.0,30.08,NE,56,3.0,10.0,66,0.00,,,0.00,0.000000,,2013-07-04 06:33:00,
2013-07-03 23:42:00,62.0,51.0,30.08,ENE,58,3.0,7.0,67,0.00,,,0.00,0.000000,,2013-07-04 06:42:00,
2013-07-03 23:52:00,62.0,51.0,30.08,ENE,58,1.0,5.0,67,0.00,,,0.00,0.000000,,2013-07-04 06:52:00,